AFL1255 UTDD-UBBB

Flight info

Callsign AFL1255
Flight time 2h 31m
Altitude 36000
Route SOPNO1A SOPNO Q169 INDUD Z777 MANAT/N0449F360 R226 AKRAM A477 BABUM A909 RODAR M11 AMOKU
Aircraft A320/M-SDE3FGHIRWY/LB1

Departure

Time 2026-04-26 15:46
Airport Dushanbe International Airport (UTDD)

Arrival

Time 2026-04-26 18:18
Airport Heydar Aliyev International Airport (UBBB)
Time Latitude Longitude Altitude Speed Heading
2026-04-26 15:00 38.54798 68.81414 2582 ft 0 kts 359°
2026-04-26 15:35 38.54789 68.81414 2576 ft 4 kts 359°
2026-04-26 15:35 38.54762 68.81414 2582 ft 4 kts 359°
2026-04-26 15:35 38.54738 68.81413 2579 ft 2 kts 360°
2026-04-26 15:36 38.54714 68.81417 2574 ft 4 kts 338°
2026-04-26 15:36 38.54693 68.81435 2575 ft 4 kts 301°
2026-04-26 15:36 38.54686 68.81461 2576 ft 1 kts 270°
2026-04-26 15:36 38.54686 68.81462 2582 ft 0 kts 270°
2026-04-26 15:39 38.54686 68.81460 2582 ft 0 kts 269°
2026-04-26 15:39 38.54686 68.81457 2582 ft 3 kts 269°
2026-04-26 15:40 38.54689 68.81258 2576 ft 26 kts 270°
2026-04-26 15:40 38.54691 68.81026 2582 ft 26 kts 271°
2026-04-26 15:40 38.54693 68.80793 2578 ft 26 kts 270°
2026-04-26 15:40 38.54675 68.80665 2577 ft 5 kts 169°
2026-04-26 15:41 38.54645 68.80671 2582 ft 3 kts 176°
2026-04-26 15:41 38.54613 68.80671 2576 ft 4 kts 180°
2026-04-26 15:41 38.54579 68.80671 2580 ft 6 kts 180°
2026-04-26 15:41 38.54545 68.80671 2582 ft 4 kts 180°
2026-04-26 15:42 38.54524 68.80671 2582 ft 2 kts 180°
2026-04-26 15:42 38.54514 68.80671 2576 ft 2 kts 180°
2026-04-26 15:42 38.54483 68.80671 2579 ft 7 kts 180°
2026-04-26 15:42 38.54480 68.80671 2582 ft 0 kts 180°
2026-04-26 15:45 38.54384 68.80703 2575 ft 8 kts 125°
2026-04-26 15:45 38.54373 68.80807 2580 ft 17 kts 90°
2026-04-26 15:46 38.54372 68.82131 2578 ft 137 kts 91°
2026-04-26 15:46 38.54377 68.83544 2644 ft 178 kts 89°
2026-04-26 15:46 38.54390 68.85136 3249 ft 180 kts 89°
2026-04-26 15:46 38.54389 68.86213 3648 ft 179 kts 89°
2026-04-26 15:47 38.54373 68.88427 4006 ft 203 kts 90°
2026-04-26 15:47 38.54346 68.92405 4400 ft 246 kts 91°
2026-04-26 15:47 38.54334 68.94697 4716 ft 267 kts 91°
2026-04-26 15:48 38.54324 68.97120 5374 ft 277 kts 90°
2026-04-26 15:48 38.54316 68.99596 6141 ft 280 kts 90°
2026-04-26 15:48 38.54308 69.02071 6878 ft 284 kts 90°
2026-04-26 15:48 38.54300 69.04608 7614 ft 288 kts 90°
2026-04-26 15:49 38.54098 69.07150 8333 ft 291 kts 109°
2026-04-26 15:49 38.53073 69.09358 9020 ft 292 kts 136°
2026-04-26 15:49 38.51363 69.10727 9656 ft 295 kts 163°
2026-04-26 15:49 38.49323 69.11028 10279 ft 300 kts 180°
2026-04-26 15:50 38.47905 69.11033 10401 ft 316 kts 180°
2026-04-26 15:50 38.44840 69.11016 10774 ft 339 kts 180°
2026-04-26 15:50 38.42456 69.10996 11395 ft 344 kts 180°
2026-04-26 15:50 38.40088 69.10815 12050 ft 348 kts 192°
2026-04-26 15:51 38.37858 69.09630 12705 ft 351 kts 214°
2026-04-26 15:51 38.36140 69.07427 13343 ft 355 kts 237°
2026-04-26 15:51 38.35215 69.04519 13969 ft 358 kts 260°
2026-04-26 15:51 38.35090 69.01342 14593 ft 361 kts 269°
2026-04-26 15:52 38.35094 68.98135 15210 ft 363 kts 269°
2026-04-26 15:52 38.35100 68.94905 15807 ft 366 kts 269°
2026-04-26 15:52 38.35105 68.91651 16392 ft 368 kts 270°
2026-04-26 15:52 38.35239 68.89496 16756 ft 371 kts 278°
2026-04-26 15:53 38.36239 68.85313 17481 ft 377 kts 295°
2026-04-26 15:53 38.37607 68.82455 17948 ft 381 kts 307°
2026-04-26 15:53 38.39424 68.79996 18063 ft 382 kts 316°
2026-04-26 15:53 38.41366 68.77690 18082 ft 381 kts 316°
2026-04-26 15:54 38.43307 68.75395 18081 ft 381 kts 316°
2026-04-26 15:54 38.45245 68.73093 18081 ft 381 kts 316°
2026-04-26 15:54 38.47176 68.70783 18081 ft 380 kts 315°
2026-04-26 15:54 38.49101 68.68472 18082 ft 380 kts 315°
2026-04-26 15:55 38.50990 68.66110 18080 ft 379 kts 310°
2026-04-26 15:55 38.52509 68.63432 18081 ft 378 kts 298°
2026-04-26 15:55 38.53592 68.60388 18081 ft 376 kts 287°
2026-04-26 15:55 38.54170 68.57146 18083 ft 374 kts 275°
2026-04-26 15:56 38.54271 68.53834 18082 ft 373 kts 269°
2026-04-26 15:56 38.54276 68.50514 18081 ft 373 kts 269°
2026-04-26 15:56 38.54283 68.47199 18082 ft 373 kts 269°
2026-04-26 15:56 38.54291 68.43889 18082 ft 373 kts 269°
2026-04-26 15:57 38.54299 68.40570 18084 ft 373 kts 269°
2026-04-26 15:57 38.54305 68.37302 18082 ft 373 kts 269°
2026-04-26 15:57 38.54312 68.33986 18082 ft 373 kts 269°
2026-04-26 15:57 38.54320 68.31751 18081 ft 373 kts 269°
2026-04-26 15:58 38.54332 68.27370 18081 ft 373 kts 269°
2026-04-26 15:58 38.54339 68.24050 18086 ft 373 kts 269°
2026-04-26 15:58 38.54340 68.20740 18091 ft 373 kts 269°
2026-04-26 15:58 38.54336 68.17434 18091 ft 373 kts 269°
2026-04-26 15:59 38.54330 68.14120 18092 ft 373 kts 269°
2026-04-26 15:59 38.54327 68.10849 18090 ft 373 kts 269°
2026-04-26 15:59 38.54329 68.07538 18091 ft 373 kts 269°
2026-04-26 15:59 38.54391 68.04204 18446 ft 376 kts 271°
2026-04-26 16:00 38.54532 68.00861 19003 ft 379 kts 273°
2026-04-26 16:00 38.54714 67.97493 19543 ft 381 kts 273°
2026-04-26 16:00 38.54910 67.94112 20089 ft 383 kts 274°
2026-04-26 16:00 38.55100 67.90713 20610 ft 385 kts 273°
2026-04-26 16:01 38.55276 67.87293 21123 ft 387 kts 273°
2026-04-26 16:01 38.55445 67.83854 21632 ft 389 kts 273°
2026-04-26 16:01 38.55606 67.80398 22114 ft 391 kts 272°
2026-04-26 16:01 38.55759 67.76970 22555 ft 393 kts 272°
2026-04-26 16:02 38.55915 67.73481 23004 ft 395 kts 272°
2026-04-26 16:02 38.56076 67.69966 23427 ft 397 kts 272°
2026-04-26 16:02 38.56239 67.66438 23834 ft 399 kts 272°
2026-04-26 16:02 38.56346 67.64093 24104 ft 400 kts 272°
2026-04-26 16:03 38.56561 67.59329 24655 ft 403 kts 272°
2026-04-26 16:03 38.56720 67.55749 25053 ft 404 kts 272°
2026-04-26 16:03 38.56878 67.52169 25469 ft 404 kts 272°
2026-04-26 16:03 38.57037 67.48578 25882 ft 405 kts 272°
2026-04-26 16:04 38.57191 67.45040 26268 ft 405 kts 272°
2026-04-26 16:04 38.57345 67.41439 26621 ft 406 kts 272°
2026-04-26 16:04 38.57500 67.37841 26967 ft 406 kts 272°
2026-04-26 16:04 38.57656 67.34236 27328 ft 407 kts 272°
2026-04-26 16:05 38.57808 67.30628 27668 ft 407 kts 271°
2026-04-26 16:05 38.57959 67.27008 27998 ft 408 kts 271°
2026-04-26 16:05 38.58109 67.23386 28328 ft 408 kts 271°
2026-04-26 16:05 38.58259 67.19759 28662 ft 409 kts 271°
2026-04-26 16:06 38.58408 67.16169 28989 ft 410 kts 271°
2026-04-26 16:06 38.58511 67.13715 29198 ft 410 kts 271°
2026-04-26 16:06 38.58708 67.08884 29607 ft 411 kts 271°
2026-04-26 16:06 38.58853 67.05235 29889 ft 412 kts 271°
2026-04-26 16:07 38.58998 67.01582 30187 ft 412 kts 271°
2026-04-26 16:07 38.59143 66.97923 30435 ft 412 kts 271°
2026-04-26 16:07 38.59288 66.94268 30663 ft 413 kts 271°
2026-04-26 16:07 38.59432 66.90599 30940 ft 413 kts 271°
2026-04-26 16:08 38.59573 66.86992 31248 ft 411 kts 271°
2026-04-26 16:08 38.59669 66.84525 31451 ft 410 kts 271°
2026-04-26 16:08 38.59851 66.79710 31822 ft 409 kts 271°
2026-04-26 16:08 38.59986 66.76081 32131 ft 408 kts 271°
2026-04-26 16:09 38.60123 66.72466 32427 ft 407 kts 270°
2026-04-26 16:09 38.60259 66.68855 32702 ft 406 kts 270°
2026-04-26 16:09 38.60393 66.65261 32971 ft 405 kts 270°
2026-04-26 16:09 38.60524 66.61665 33233 ft 404 kts 270°
2026-04-26 16:10 38.60651 66.58084 33510 ft 403 kts 270°
2026-04-26 16:10 38.60775 66.54508 33752 ft 403 kts 270°
2026-04-26 16:10 38.60898 66.50983 34029 ft 401 kts 270°
2026-04-26 16:10 38.61021 66.47425 34283 ft 401 kts 270°
2026-04-26 16:11 38.61146 66.43867 34549 ft 400 kts 270°
2026-04-26 16:11 38.61271 66.40328 34808 ft 399 kts 270°
2026-04-26 16:11 38.61396 66.36796 35053 ft 397 kts 270°
2026-04-26 16:11 38.61519 66.33271 35281 ft 396 kts 270°
2026-04-26 16:12 38.61638 66.29748 35482 ft 396 kts 270°
2026-04-26 16:12 38.61758 66.26280 35690 ft 395 kts 272°
2026-04-26 16:12 38.62846 66.19389 36045 ft 398 kts 283°
2026-04-26 16:13 38.64413 66.12625 36082 ft 395 kts 283°
2026-04-26 16:13 38.65956 66.05889 36081 ft 394 kts 283°
2026-04-26 16:14 38.67487 65.99148 36082 ft 394 kts 283°
2026-04-26 16:15 38.69776 65.89075 36083 ft 395 kts 283°
2026-04-26 16:15 38.71308 65.82321 36084 ft 395 kts 283°
2026-04-26 16:16 38.73595 65.72190 36079 ft 395 kts 283°
2026-04-26 16:16 38.75113 65.65423 36077 ft 395 kts 282°
2026-04-26 16:17 38.76618 65.58692 36086 ft 396 kts 283°
2026-04-26 16:17 38.78134 65.51907 36083 ft 396 kts 283°
2026-04-26 16:18 38.80407 65.41725 36087 ft 396 kts 283°
2026-04-26 16:19 38.82666 65.31538 36088 ft 396 kts 283°
2026-04-26 16:20 38.84905 65.21396 36085 ft 396 kts 282°
2026-04-26 16:20 38.87138 65.11194 36088 ft 396 kts 282°
2026-04-26 16:21 38.88629 65.04382 36090 ft 396 kts 283°
2026-04-26 16:21 38.90117 64.97575 36097 ft 396 kts 283°
2026-04-26 16:22 38.91590 64.90807 36098 ft 396 kts 282°
2026-04-26 16:22 38.93066 64.83987 36108 ft 396 kts 283°
2026-04-26 16:23 38.94542 64.77170 36112 ft 396 kts 283°
2026-04-26 16:23 38.96008 64.70346 36109 ft 396 kts 282°
2026-04-26 16:24 38.97467 64.63523 36113 ft 396 kts 282°
2026-04-26 16:24 38.98916 64.56750 36114 ft 396 kts 282°
2026-04-26 16:25 39.00370 64.49929 36113 ft 396 kts 282°
2026-04-26 16:25 39.01822 64.43094 36119 ft 396 kts 282°
2026-04-26 16:26 39.03041 64.37363 36121 ft 396 kts 282°
2026-04-26 16:26 39.04721 64.29419 36115 ft 396 kts 282°
2026-04-26 16:27 39.05914 64.23732 36121 ft 396 kts 282°
2026-04-26 16:27 39.07596 64.15734 36127 ft 396 kts 282°
2026-04-26 16:28 39.09084 64.08953 36131 ft 396 kts 284°
2026-04-26 16:28 39.10416 64.03261 36126 ft 396 kts 284°
2026-04-26 16:29 39.11993 63.96520 36127 ft 396 kts 284°
2026-04-26 16:29 39.13557 63.89726 36125 ft 396 kts 283°
2026-04-26 16:30 39.15106 63.82918 36127 ft 396 kts 283°
2026-04-26 16:30 39.16650 63.76099 36129 ft 396 kts 283°
2026-04-26 16:31 39.18194 63.69278 36122 ft 397 kts 283°
2026-04-26 16:31 39.19736 63.62449 36120 ft 397 kts 283°
2026-04-26 16:32 39.21257 63.55662 36129 ft 397 kts 283°
2026-04-26 16:32 39.22794 63.48828 36133 ft 397 kts 283°
2026-04-26 16:33 39.24331 63.42001 36137 ft 396 kts 283°
2026-04-26 16:33 39.25854 63.35171 36138 ft 396 kts 283°
2026-04-26 16:34 39.27359 63.28385 36131 ft 396 kts 283°
2026-04-26 16:34 39.28871 63.21554 36133 ft 396 kts 283°
2026-04-26 16:35 39.30385 63.14711 36144 ft 396 kts 283°
2026-04-26 16:35 39.31893 63.07867 36148 ft 396 kts 283°
2026-04-26 16:36 39.33400 63.01029 36151 ft 396 kts 283°
2026-04-26 16:36 39.34900 62.94184 36153 ft 396 kts 283°
2026-04-26 16:37 39.36381 62.87386 36158 ft 395 kts 283°
2026-04-26 16:37 39.37862 62.80554 36159 ft 395 kts 282°
2026-04-26 16:38 39.39341 62.73715 36156 ft 394 kts 283°
2026-04-26 16:38 39.40821 62.66889 36154 ft 394 kts 282°
2026-04-26 16:39 39.42292 62.60056 36154 ft 394 kts 282°
2026-04-26 16:39 39.43767 62.53226 36153 ft 394 kts 282°
2026-04-26 16:40 39.45228 62.46447 36153 ft 394 kts 282°
2026-04-26 16:40 39.46683 62.39617 36153 ft 393 kts 282°
2026-04-26 16:41 39.48133 62.32789 36153 ft 393 kts 282°
2026-04-26 16:41 39.49580 62.25959 36153 ft 393 kts 282°
2026-04-26 16:42 39.51025 62.19130 36153 ft 393 kts 282°
2026-04-26 16:42 39.52454 62.12350 36150 ft 393 kts 282°
2026-04-26 16:43 39.53885 62.05559 36128 ft 389 kts 282°
2026-04-26 16:43 39.55315 61.98781 36120 ft 390 kts 282°
2026-04-26 16:44 39.56747 61.91997 36129 ft 395 kts 282°
2026-04-26 16:44 39.58180 61.85122 36148 ft 394 kts 282°
2026-04-26 16:45 39.59587 61.78281 36155 ft 392 kts 282°
2026-04-26 16:45 39.60996 61.71456 36137 ft 392 kts 281°
2026-04-26 16:46 39.62393 61.64679 36171 ft 392 kts 282°
2026-04-26 16:46 39.63800 61.57816 36166 ft 393 kts 282°
2026-04-26 16:47 39.65198 61.50953 36166 ft 393 kts 281°
2026-04-26 16:47 39.66604 61.44097 36168 ft 394 kts 282°
2026-04-26 16:48 39.68005 61.37219 36172 ft 394 kts 281°
2026-04-26 16:48 39.69392 61.30383 36172 ft 394 kts 281°
2026-04-26 16:49 39.70787 61.23505 36173 ft 394 kts 281°
2026-04-26 16:49 39.72174 61.16624 36171 ft 394 kts 281°
2026-04-26 16:50 39.73557 61.09737 36171 ft 394 kts 281°
2026-04-26 16:50 39.74937 61.02836 36172 ft 395 kts 281°
2026-04-26 16:51 39.76312 60.95931 36169 ft 395 kts 281°
2026-04-26 16:51 39.77679 60.89061 36159 ft 395 kts 281°
2026-04-26 16:52 39.78821 60.83323 36158 ft 395 kts 281°
2026-04-26 16:52 39.80428 60.75259 36158 ft 396 kts 281°
2026-04-26 16:53 39.81785 60.68324 36157 ft 396 kts 280°
2026-04-26 16:53 39.83132 60.61410 36161 ft 398 kts 280°
2026-04-26 16:54 39.84490 60.54423 36176 ft 399 kts 280°
2026-04-26 16:54 39.85858 60.47423 36183 ft 399 kts 280°
2026-04-26 16:55 39.87223 60.40418 36187 ft 400 kts 280°
2026-04-26 16:55 39.88570 60.33446 36195 ft 400 kts 280°
2026-04-26 16:56 39.89541 60.26357 36198 ft 395 kts 268°
2026-04-26 16:56 39.89576 60.22788 36199 ft 395 kts 268°
2026-04-26 16:57 39.89643 60.15637 36200 ft 395 kts 268°
2026-04-26 16:57 39.89749 60.04898 36203 ft 395 kts 268°
2026-04-26 16:58 39.89802 59.98947 36205 ft 395 kts 268°
2026-04-26 16:59 39.89896 59.87049 36204 ft 395 kts 268°
2026-04-26 17:00 39.89999 59.72728 36204 ft 396 kts 268°
2026-04-26 17:00 39.90065 59.61980 36198 ft 396 kts 268°
2026-04-26 17:01 39.90102 59.54816 36194 ft 395 kts 268°
2026-04-26 17:01 39.90134 59.47713 36188 ft 395 kts 268°
2026-04-26 17:02 39.90160 59.40554 36178 ft 395 kts 267°
2026-04-26 17:02 39.90185 59.33399 36172 ft 395 kts 267°
2026-04-26 17:03 39.90188 59.26242 36171 ft 395 kts 267°
2026-04-26 17:03 39.90183 59.19127 36167 ft 395 kts 267°
2026-04-26 17:04 39.90176 59.11964 36165 ft 396 kts 267°
2026-04-26 17:04 39.90165 59.04796 36165 ft 396 kts 267°
2026-04-26 17:05 39.90144 58.97618 36165 ft 396 kts 267°
2026-04-26 17:05 39.90113 58.90446 36166 ft 396 kts 267°
2026-04-26 17:06 39.90075 58.83311 36168 ft 397 kts 266°
2026-04-26 17:06 39.90032 58.76121 36172 ft 397 kts 266°
2026-04-26 17:07 39.89992 58.68940 36173 ft 397 kts 266°
2026-04-26 17:07 39.89946 58.61756 36168 ft 397 kts 266°
2026-04-26 17:08 39.89885 58.54575 36173 ft 397 kts 267°
2026-04-26 17:08 39.89819 58.47423 36173 ft 398 kts 266°
2026-04-26 17:09 39.89772 58.41446 36171 ft 397 kts 266°
2026-04-26 17:09 39.89702 58.33040 36168 ft 397 kts 266°
2026-04-26 17:10 39.89634 58.25850 36163 ft 397 kts 266°
2026-04-26 17:10 39.89557 58.18705 36164 ft 397 kts 266°
2026-04-26 17:11 39.89484 58.11510 36159 ft 398 kts 266°
2026-04-26 17:11 39.89433 58.04299 36164 ft 397 kts 266°
2026-04-26 17:12 39.89339 57.93507 36160 ft 399 kts 266°
2026-04-26 17:13 39.89237 57.82697 36161 ft 400 kts 266°
2026-04-26 17:14 39.89119 57.71883 36166 ft 397 kts 266°
2026-04-26 17:14 39.88988 57.61079 36162 ft 398 kts 266°
2026-04-26 17:15 39.88857 57.50313 36158 ft 398 kts 266°
2026-04-26 17:16 39.88767 57.43108 36149 ft 397 kts 266°
2026-04-26 17:16 39.88659 57.35919 36142 ft 398 kts 266°
2026-04-26 17:17 39.88553 57.28764 36131 ft 398 kts 266°
2026-04-26 17:17 39.88444 57.21558 36128 ft 398 kts 266°
2026-04-26 17:18 39.88331 57.14344 36136 ft 399 kts 266°
2026-04-26 17:18 39.88212 57.07125 36137 ft 399 kts 266°
2026-04-26 17:19 39.88026 56.96343 36134 ft 399 kts 266°
2026-04-26 17:19 39.87892 56.89113 36133 ft 399 kts 266°
2026-04-26 17:20 39.87781 56.83111 36134 ft 399 kts 266°
2026-04-26 17:20 39.87619 56.74660 36128 ft 400 kts 266°
2026-04-26 17:21 39.87481 56.67472 36134 ft 400 kts 266°
2026-04-26 17:21 39.87330 56.60239 36125 ft 400 kts 266°
2026-04-26 17:22 39.87185 56.53007 36135 ft 400 kts 266°
2026-04-26 17:22 39.87033 56.45770 36135 ft 400 kts 266°
2026-04-26 17:23 39.86868 56.38533 36137 ft 400 kts 266°
2026-04-26 17:23 39.86701 56.31287 36143 ft 401 kts 265°
2026-04-26 17:24 39.86525 56.24081 36142 ft 401 kts 265°
2026-04-26 17:24 39.86352 56.16835 36142 ft 400 kts 266°
2026-04-26 17:25 39.86184 56.09596 36142 ft 400 kts 266°
2026-04-26 17:25 39.86011 56.02354 36140 ft 400 kts 266°
2026-04-26 17:26 39.85832 55.95174 36136 ft 400 kts 265°
2026-04-26 17:26 39.85643 55.87953 36129 ft 399 kts 265°
2026-04-26 17:27 39.85449 55.80727 36122 ft 399 kts 265°
2026-04-26 17:27 39.85250 55.73510 36123 ft 399 kts 265°
2026-04-26 17:28 39.85047 55.66292 36120 ft 399 kts 265°
2026-04-26 17:28 39.84845 55.59123 36123 ft 399 kts 265°
2026-04-26 17:29 39.84669 55.53078 36116 ft 399 kts 265°
2026-04-26 17:29 39.84424 55.44690 36124 ft 399 kts 265°
2026-04-26 17:30 39.84207 55.37473 36114 ft 399 kts 265°
2026-04-26 17:30 39.83987 55.30252 36122 ft 399 kts 265°
2026-04-26 17:31 39.83758 55.23083 36113 ft 399 kts 265°
2026-04-26 17:31 39.83525 55.15868 36122 ft 399 kts 265°
2026-04-26 17:32 39.83290 55.08649 36122 ft 399 kts 265°
2026-04-26 17:32 39.83057 55.01432 36122 ft 399 kts 265°
2026-04-26 17:33 39.82846 54.94208 36123 ft 399 kts 265°
2026-04-26 17:34 39.82545 54.83433 36125 ft 399 kts 266°
2026-04-26 17:34 39.82533 54.76207 36125 ft 402 kts 275°
2026-04-26 17:35 39.83857 54.69118 36130 ft 404 kts 282°
2026-04-26 17:35 39.85361 54.62064 36127 ft 404 kts 282°
2026-04-26 17:36 39.86848 54.55066 36128 ft 404 kts 282°
2026-04-26 17:36 39.88337 54.48023 36130 ft 404 kts 282°
2026-04-26 17:37 39.89824 54.40976 36125 ft 403 kts 282°
2026-04-26 17:37 39.91293 54.33940 36123 ft 403 kts 282°
2026-04-26 17:38 39.93484 54.23363 36121 ft 403 kts 281°
2026-04-26 17:38 39.94931 54.16368 36124 ft 402 kts 282°
2026-04-26 17:39 39.96392 54.09340 36121 ft 401 kts 281°
2026-04-26 17:39 39.97836 54.02321 36126 ft 400 kts 281°
2026-04-26 17:40 39.99035 53.96490 36119 ft 400 kts 281°
2026-04-26 17:40 40.00706 53.88345 36117 ft 399 kts 281°
2026-04-26 17:41 40.02126 53.81339 36114 ft 400 kts 281°
2026-04-26 17:41 40.03548 53.74319 36114 ft 400 kts 281°
2026-04-26 17:42 40.04970 53.67296 36108 ft 400 kts 281°
2026-04-26 17:42 40.06380 53.60318 36110 ft 401 kts 281°
2026-04-26 17:43 40.07789 53.53287 36117 ft 400 kts 281°
2026-04-26 17:43 40.09197 53.46258 36116 ft 400 kts 281°
2026-04-26 17:44 40.10606 53.39228 36118 ft 400 kts 281°
2026-04-26 17:44 40.12003 53.32204 36118 ft 400 kts 281°
2026-04-26 17:45 40.13396 53.25169 36114 ft 400 kts 281°
2026-04-26 17:45 40.14773 53.18178 36118 ft 400 kts 281°
2026-04-26 17:46 40.16161 53.11139 36123 ft 400 kts 281°
2026-04-26 17:46 40.17551 53.04096 36127 ft 400 kts 281°
2026-04-26 17:47 40.18696 52.98243 36123 ft 400 kts 281°
2026-04-26 17:47 40.20298 52.90016 36124 ft 399 kts 281°
2026-04-26 17:48 40.21656 52.83023 36122 ft 399 kts 280°
2026-04-26 17:48 40.23014 52.75969 35839 ft 400 kts 280°
2026-04-26 17:49 40.23690 52.72454 35589 ft 398 kts 280°
2026-04-26 17:49 40.24364 52.68955 35335 ft 396 kts 280°
2026-04-26 17:49 40.25034 52.65471 35089 ft 393 kts 280°
2026-04-26 17:49 40.25700 52.62009 34839 ft 391 kts 280°
2026-04-26 17:50 40.26359 52.58568 34589 ft 389 kts 280°
2026-04-26 17:50 40.27015 52.55143 34338 ft 387 kts 280°
2026-04-26 17:50 40.27662 52.51778 34085 ft 385 kts 280°
2026-04-26 17:50 40.28312 52.48387 33839 ft 383 kts 280°
2026-04-26 17:51 40.28957 52.45015 33589 ft 381 kts 280°
2026-04-26 17:51 40.29598 52.41656 33339 ft 379 kts 280°
2026-04-26 17:51 40.30234 52.38311 33089 ft 378 kts 280°
2026-04-26 17:51 40.30869 52.34968 32842 ft 378 kts 280°
2026-04-26 17:52 40.31506 52.31624 32587 ft 377 kts 280°
2026-04-26 17:52 40.32136 52.28296 32335 ft 376 kts 280°
2026-04-26 17:52 40.32762 52.24980 32086 ft 375 kts 280°
2026-04-26 17:52 40.33387 52.21665 31835 ft 374 kts 280°
2026-04-26 17:53 40.34001 52.18410 31588 ft 372 kts 280°
2026-04-26 17:53 40.34616 52.15134 31182 ft 368 kts 280°
2026-04-26 17:53 40.35225 52.11887 30726 ft 366 kts 280°
2026-04-26 17:54 40.36430 52.05458 29823 ft 360 kts 280°
2026-04-26 17:54 40.37023 52.02282 29407 ft 357 kts 280°
2026-04-26 17:54 40.37610 51.99129 28983 ft 355 kts 280°
2026-04-26 17:54 40.38191 51.95997 28567 ft 352 kts 280°
2026-04-26 17:55 40.38768 51.92895 28153 ft 349 kts 280°
2026-04-26 17:55 40.39331 51.89858 27752 ft 345 kts 280°
2026-04-26 17:55 40.39895 51.86811 27346 ft 342 kts 280°
2026-04-26 17:55 40.40453 51.83788 26939 ft 339 kts 280°
2026-04-26 17:56 40.41005 51.80794 26524 ft 335 kts 280°
2026-04-26 17:56 40.42074 51.74983 25719 ft 325 kts 280°
2026-04-26 17:57 40.43126 51.69268 24897 ft 320 kts 281°
2026-04-26 17:57 40.43646 51.66440 24475 ft 318 kts 281°
2026-04-26 17:57 40.44154 51.63669 24064 ft 316 kts 281°
2026-04-26 17:57 40.44663 51.60879 23648 ft 314 kts 281°
2026-04-26 17:58 40.46168 51.52584 22411 ft 309 kts 281°
2026-04-26 17:59 40.46939 51.46927 22077 ft 325 kts 275°
2026-04-26 17:59 40.47219 51.43964 22081 ft 328 kts 275°
2026-04-26 17:59 40.47502 51.40977 21698 ft 332 kts 275°
2026-04-26 17:59 40.47788 51.37913 20855 ft 343 kts 275°
2026-04-26 18:00 40.48074 51.34844 20261 ft 341 kts 275°
2026-04-26 18:00 40.48365 51.31762 19467 ft 338 kts 275°
2026-04-26 18:00 40.48648 51.28759 19027 ft 324 kts 275°
2026-04-26 18:00 40.48919 51.25878 18622 ft 311 kts 275°
2026-04-26 18:01 40.49177 51.23119 18241 ft 299 kts 275°
2026-04-26 18:01 40.49423 51.20458 17876 ft 287 kts 275°
2026-04-26 18:01 40.49660 51.17874 17530 ft 286 kts 275°
2026-04-26 18:01 40.49896 51.15284 17171 ft 286 kts 275°
2026-04-26 18:02 40.50130 51.12725 16829 ft 285 kts 275°
2026-04-26 18:02 40.50210 51.11851 16706 ft 285 kts 275°
2026-04-26 18:02 40.50604 51.07556 16129 ft 284 kts 275°
2026-04-26 18:02 40.50837 51.04978 15785 ft 284 kts 275°
2026-04-26 18:03 40.51068 51.02405 15441 ft 283 kts 274°
2026-04-26 18:03 40.51298 50.99837 15098 ft 283 kts 275°
2026-04-26 18:03 40.51530 50.97272 14754 ft 282 kts 275°
2026-04-26 18:03 40.51762 50.94710 14404 ft 282 kts 274°
2026-04-26 18:04 40.52026 50.92153 14060 ft 283 kts 279°
2026-04-26 18:04 40.52584 50.89627 13866 ft 294 kts 285°
2026-04-26 18:04 40.53192 50.87073 13689 ft 298 kts 284°
2026-04-26 18:05 40.54422 50.81864 13299 ft 298 kts 284°
2026-04-26 18:05 40.55034 50.79257 13114 ft 297 kts 284°
2026-04-26 18:05 40.55642 50.76664 12923 ft 297 kts 284°
2026-04-26 18:05 40.56253 50.74073 12730 ft 296 kts 284°
2026-04-26 18:06 40.56864 50.71483 12503 ft 297 kts 284°
2026-04-26 18:06 40.57479 50.68877 12089 ft 295 kts 284°
2026-04-26 18:06 40.58080 50.66315 11831 ft 292 kts 284°
2026-04-26 18:06 40.58677 50.63760 11135 ft 291 kts 284°
2026-04-26 18:07 40.59262 50.61244 10416 ft 292 kts 284°
2026-04-26 18:07 40.59856 50.58694 9687 ft 292 kts 283°
2026-04-26 18:07 40.60447 50.56160 9223 ft 283 kts 283°
2026-04-26 18:07 40.60833 50.54518 8993 ft 274 kts 283°
2026-04-26 18:08 40.61570 50.51376 8276 ft 270 kts 283°
2026-04-26 18:08 40.62119 50.49021 7701 ft 268 kts 283°
2026-04-26 18:08 40.62664 50.46677 7302 ft 268 kts 283°
2026-04-26 18:08 40.63211 50.44326 6950 ft 269 kts 283°
2026-04-26 18:09 40.63758 50.41971 6598 ft 268 kts 283°
2026-04-26 18:09 40.64302 50.39627 6252 ft 267 kts 283°
2026-04-26 18:09 40.64839 50.37323 5908 ft 266 kts 283°
2026-04-26 18:09 40.65383 50.34973 5561 ft 265 kts 283°
2026-04-26 18:10 40.65913 50.32687 5221 ft 264 kts 283°
2026-04-26 18:10 40.66343 50.30375 4980 ft 254 kts 272°
2026-04-26 18:10 40.66373 50.28132 4846 ft 234 kts 259°
2026-04-26 18:10 40.66138 50.26101 4692 ft 216 kts 256°
2026-04-26 18:11 40.65907 50.24193 4441 ft 205 kts 256°
2026-04-26 18:11 40.65687 50.22377 4193 ft 198 kts 256°
2026-04-26 18:11 40.65472 50.20612 4025 ft 195 kts 256°
2026-04-26 18:11 40.65254 50.18840 3934 ft 198 kts 256°
2026-04-26 18:12 40.65027 50.17011 3523 ft 206 kts 256°
2026-04-26 18:12 40.64800 50.15191 3301 ft 199 kts 256°
2026-04-26 18:12 40.64591 50.13460 3178 ft 185 kts 256°
2026-04-26 18:12 40.64393 50.11810 3096 ft 179 kts 256°
2026-04-26 18:13 40.64201 50.10213 3011 ft 175 kts 256°
2026-04-26 18:13 40.64007 50.08640 2936 ft 173 kts 253°
2026-04-26 18:13 40.63525 50.07253 2940 ft 163 kts 226°
2026-04-26 18:13 40.63268 50.06889 2884 ft 159 kts 217°
2026-04-26 18:14 40.61703 50.06078 2552 ft 138 kts 179°
2026-04-26 18:14 40.60758 50.06098 2388 ft 133 kts 178°
2026-04-26 18:14 40.59839 50.06111 2221 ft 131 kts 179°
2026-04-26 18:14 40.58947 50.06124 2057 ft 129 kts 179°
2026-04-26 18:15 40.58049 50.06137 1876 ft 129 kts 179°
2026-04-26 18:15 40.57156 50.06150 1718 ft 129 kts 179°
2026-04-26 18:15 40.56259 50.06163 1551 ft 129 kts 179°
2026-04-26 18:15 40.55365 50.06177 1375 ft 129 kts 179°
2026-04-26 18:16 40.54470 50.06191 1207 ft 128 kts 179°
2026-04-26 18:16 40.52747 50.06218 877 ft 128 kts 179°
2026-04-26 18:16 40.51856 50.06231 712 ft 128 kts 179°
2026-04-26 18:17 40.50966 50.06245 534 ft 128 kts 179°
2026-04-26 18:17 40.50085 50.06269 360 ft 128 kts 179°
2026-04-26 18:17 40.49195 50.06280 166 ft 128 kts 178°
2026-04-26 18:17 40.48305 50.06290 28 ft 127 kts 180°
2026-04-26 18:18 40.47551 50.06302 11 ft 85 kts 180°
2026-04-26 18:18 40.47127 50.06303 10 ft 42 kts 180°
2026-04-26 18:18 40.46852 50.06308 13 ft 38 kts 179°
2026-04-26 18:18 40.46629 50.06308 16 ft 16 kts 190°
2026-04-26 18:19 40.46582 50.06192 16 ft 13 kts 264°
2026-04-26 18:19 40.46582 50.06171 14 ft 0 kts 268°
2026-04-26 18:21 40.46582 50.06170 14 ft 1 kts 268°
2026-04-26 18:21 40.46581 50.06125 14 ft 5 kts 268°
2026-04-26 18:21 40.46579 50.06082 14 ft 7 kts 268°
2026-04-26 18:21 40.46563 50.05978 15 ft 17 kts 233°
2026-04-26 18:22 40.46512 50.05858 15 ft 19 kts 270°
2026-04-26 18:22 40.46512 50.05684 15 ft 20 kts 269°
2026-04-26 18:22 40.46553 50.05571 16 ft 14 kts 325°
2026-04-26 18:22 40.46627 50.05506 16 ft 12 kts 327°
2026-04-26 18:23 40.46693 50.05453 16 ft 10 kts 334°
2026-04-26 18:23 40.46753 50.05416 15 ft 9 kts 335°
2026-04-26 18:23 40.46783 50.05361 15 ft 7 kts 261°
2026-04-26 18:23 40.46757 50.05317 16 ft 5 kts 230°
2026-04-26 18:24 40.46750 50.05306 15 ft 0 kts 230°